Погода в Жезказгане

Погода в Жезказгане : погода сейчас, прогноз погоды и архив. Всё, что Вы хотите узнать о погоде в Жезказгане!

Хотите узнать прогноз погоды в Жезказгане? Тогда Вам сюда: Погода в Жезказгане

Поиск расширенной информации на нашем сайте:

Другие новости

Новости СМИ2

Главная страница сайта

Новости сайта

03.07.2017

Напоминаем, что на нашем специализированном сайте Метеоцентр.Азия вы можете получить высокодетализированные автоматические прогнозы погоды по пунктам России, СНГ и мира в авиационном формате (включающие направление и скорость ветра, видимость, явления погоды, количество и форму облачности, нижнюю и верхнюю границу облачности).


Погода в Жезказгане - сегодня

Время (UTC), дата Ветер
(°,м/с) 
Видим.   Явления Облачность Т
(°С)
Тd
(°С)
f(%) Тe
(°С)
Pmin
(гПа)
dP
(гПа)
Po
(мм)
O2
(г/м3)
Тmin Tmax R s Состояние
почвы
15 13.01.18 тихо ()   20000 м    ясно 
-23.9 -27.5 72 -24  1035.6  1.4  741  329    -16.2       
18 13.01.18 тихо ()   20000 м    ясно 
-25.4 -29.1 71 -25  1036.9  742  331    -16.2       
21 13.01.18 тихо ()   20000 м    ясно 
-28 -32.1 68 -28  1038  0.5  742  335           
00 14.01.18 тихо ()   20000 м    ясно 
-27.6 -31.7 68 -28  1038.5  0.6  743  335           
03 14.01.18 340 (С) 20000 м    ясно 
-27.7 -31.8 68 -28  1039  0.5  743  335  -28      равномерный
сухой снег
100% 
06 14.01.18 350 (С) 20000 м    6/0 средняя 
[Ac lent]
-25.6 -29.6 69 -26  1039.2  0.6  743  332  -28         
09 14.01.18 340 (С) 20000 м    6/0 средняя, верхняя 
[Ac lent|Ci fib]
-23.3 -27.1 71 -26  1037.4  -1.3  742  329           
12 14.01.18 350 (С) 20000 м    ясно 
-24 -27.8 71 -27  1037.4  -0.2  742  330           
15 14.01.18 350 (С) 20000 м    ясно 
-27 -31.1 68 -30  1037.2  -0.7  742  333    -22.9       
18 14.01.18 350 (С) 20000 м    ясно 
-29.2 -33.4 67 -33  1037.8  0.1  742  337    -22.9       
21 14.01.18 350 (С) 20000 м    ясно 
-28.3 -32.4 68 -32  1037.3  -0.2  742  335           
00 15.01.18 360 (С) 20000 м    5/0 верхняя 
[Ci fib]
-26.1 -29.9 70 -29  1036.8  -0.1  742  332           
03 15.01.18 350 (С) 20000 м    ясно 
-28.6 -32.7 68 -32  1037.8  0.5  742  336        равномерный
сухой снег
100% 
06 15.01.18 350 (С) 10 км  дым  6/0 верхняя 
[Ci sp]
-26 -30 69 -29  1038.9  1.5  743  333  -29.3         
09 15.01.18 310 (СЗ) 20000 м    6/0 верхняя 
[Ci sp]
-21 -24.3 75 -24  1037.3  -0.6  743  326           
12 15.01.18 330 (СЗ) 20000 м    4/0 верхняя 
[Ci sp]
-21.8 -25.3 73 -22  1037.4  743  327           
15 15.01.18 340 (С) 20000 м    ясно 
-28.1 -32.5 66 -29  1038.7  743  335    -20.2       
18 15.01.18 340 (С) 20000 м    ясно 
-29.4 -33.9 65 -30  1038.2  -0.7  742  337    -20.2       
21 15.01.18 350 (С) 20000 м    ясно 
-30.3 -34.9 64 -31  1038  -0.4  742  338           
00 16.01.18 350 (С) 20000 м    ясно 
-30.6 -35.4 63 -31  1038  -0.1  742  339           
03 16.01.18 350 (С) 10 км  дым  4/0 верхняя 
[Ci sp]
-31.8 -36.7 62 -33  1038.4  0.2  742  340        равномерный
сухой снег
100% 
06 16.01.18 350 (С) 10 км  дым  3/0 верхняя 
[Ci sp]
-26.3 -30.4 68 -27  1038  0.7  742  333  -31.8         
09 16.01.18 350 (С) 10 км  дым  3/0 верхняя 
[Ci sp]
-21.5 -25 73 -24  1035.8  -1.2  741  326           
12 16.01.18 350 (С) 20000 м    3/0 верхняя 
[Ci sp]
-21.8 -25.5 72 -22  1035.9  741  326           
15 16.01.18 тихо ()   10 км  дым  5/0 верхняя 
[Ci sp]
-27.3 -31.6 67 -27  1036.8  -0.2  741  334    -19.1       
Время (UTC), дата Ветер
(°,м/с) 
Видим.   Явления Облачность Т
(°С)
Тd
(°С)
f(%) Тe
(°С)
Pmin
(гПа)
dP
(гПа)
Po
(мм)
O2
(г/м3)
Тmin Tmax R s Состояние
почвы

Для получения пояснительной информации подведите курсор к названию столбца.

ПОГОДА в Жезказгане - архив

Всё, что Вы хотите узнать о погоде в Жезказгане - удобно и подробно!

Выберите нужную дату (начиная с 1 января 2015* года) и нажмите кнопку "Найти".
Будут отображены архивные сводки погоды по пункту Жезказган, начиная с указанной даты.


Отображать данные в формате CSV (для использования в таблицах Excel)


Внимание! Наш архив погоды предназначен исключительно для личного некоммерческого использования в познавательных целях. Если Вам необходимы официальные справки о состоянии погоды (для производственных, юридических, коммерческих и т.п. целей), обращайтесь в органы Росгидромета.

*Примечание: данная дата относится к архиву по метеостанциям СССР (Россия, СНГ, Балтия).
Архив по метеостанциям Зарубежной Европы и Азии (кроме Китая) хранится 10 дней, по другим регионам земного шара (Китай, Африка, Америка, Австралия, Океания) - 1 день.

Жезказган - район местоположения метеостанции


Название, широта, долгота, высота метеостанции:
Жезказган 47.8°ш. 67.7°д. 346 м над ур. моря [Казахстан]

Дополнительная информация

В oтличие oт бoльшинства пoгoдных сайтoв мы публикуем пoдрoбную метеoинфoрмацию в детальнoм прoфессиoнальнoм фoрмате.

Характеристики температуры и влажнoсти вoздуха измеряются на высoте 2 м в тени вдали oт зданий и деревьев.
Скoрoсть ветра измеряется на высoте 10 м (на урoвне рoста челoвека скoрoсть ветра ниже в 1.5-2 раза). Если метеoстанция нахoдится в гoрoде или в лесу, тo скoрoсть ветра занижена на 2-4 м/с пo сравнению с oткрытым местoм. Скoрoсть ветра над акватoриями крупных рек и oзёр, а также на вершинах хoлмoв на 2-5 м/с выше, чем в oбычных услoвиях.
Атмoсфернoе давление в разных тoчках местнoсти мoжет значительнo oтличаться oт давления на метеoстанции, в зависимoсти oт услoвий рельефа (при пoдъёме на 10 м давление пoнижается примернo на 1 мм рт.ст.).